sat.trackr.live / text

‹ back to catalog

STARLINK-2735

NORAD 48667 · 2021-044AF

PAYLOAD ACTIVE UNKNOWN

§ Identity

Operator
Country
US
Launch date
2021-05-26
Launch site
AFETR
Launch vehicle
Mass (kg)
RCS (m²)

Purposes: comms

External: N2YO · Heavens-Above · Gunter

§ Orbital elements

Epoch: 2026-09-09T23:31:16.296672Z

Period
94.01 min
Inclination
53.1600°
Eccentricity
0.0001023
Mean motion
15.31707925 rev/d
Perigee alt
470.0 km
Apogee alt
471.4 km
Semi-major
6,848.9 km
B*
7.6766e-5
RAAN
337.7784°
Arg perigee
70.4315°
Mean anomaly
289.6797°
Rev number
29,203

§ Raw data

STARLINK-27351 48667U 21044AF  26252.98004973  .00002018  00000+0  76766-4 0  99952 48667  53.1600 337.7784 0001023  70.4315 289.6797 15.31707925292037

JSON: /api/v1/satellites/48667 · /tle

For live sub-satellite position, see the globe view (requires WebGL).

§ Visibility from observer

Set your observer location to see the next 7 days of passes ≥ 10°. The values pass through the URL so the page stays shareable.

No JS? Fill the form by hand. The geolocation button needs JavaScript.